Date_and_time,latitude,longitude,wind_speed,RelWindDirFrom,WindDirFrom,air_pressure,air_temperature,relative_humidity,Temp,platform_speed_wrt_ground,air_pressure_at_mean_sea_level,platform_orientation
2019-01-31 23:40,50.630445,-96.9807633333333,15.2,19.2,163,990.96,-22.0,56,0.38,0.0,1021.46,161.1
2019-01-31 23:50,50.6304516666667,-96.98081,15.3,18.4,163,990.92,-21.9,54,0.38,0.0,1021.40,161.1
2019-02-01 00:00,50.6304483333333,-96.9807783333333,14.0,17.1,162,990.95,-21.9,56,0.38,0.0,1021.43,287.7
2019-02-01 00:10,50.6304483333333,-96.9807733333333,15.3,19.0,161,990.83,-21.8,56,0.38,0.0,1021.29,287.7
2019-02-01 00:20,50.6304483333333,-96.9807666666667,15.9,19.4,159,990.64,-21.8,56,0.38,0.0,1021.08,287.7
2019-02-01 00:30,50.6304483333333,-96.9807633333333,16.2,19.2,160,990.54,-21.7,57,0.37,0.0,1020.98,287.7
2019-02-01 00:40,50.6304483333333,-96.9807633333333,16.1,19.5,161,990.52,-21.7,57,0.36,0.0,1020.94,287.7
2019-02-01 00:50,50.630455,-96.9807616666667,16.4,19.7,159,990.44,-21.7,58,0.36,0.0,1020.85,287.7
2019-02-01 01:00,50.630455,-96.980765,16.3,19.8,159,990.33,-21.7,58,0.36,0.0,1020.74,0.0
2019-02-01 01:10,50.6304566666667,-96.9807633333333,16.8,20.6,162,990.22,-21.7,57,0.33,0.0,1020.62,0.0
2019-02-01 01:20,50.630455,-96.9807616666667,15.8,19.9,164,990.38,-21.7,57,0.33,0.0,1020.78,0.0
2019-02-01 01:30,50.6304483333333,-96.980755,15.4,21.0,165,990.42,-21.7,56,0.34,0.0,1020.81,0.0
2019-02-01 01:40,50.6304466666667,-96.98076,17.1,20.2,163,990.16,-21.7,56,0.36,0.0,1020.55,0.0
2019-02-01 01:50,50.6304483333333,-96.9807633333333,16.9,21.2,164,989.98,-21.7,56,0.36,0.0,1020.36,0.0
2019-02-01 02:00,50.6304483333333,-96.9807633333333,16.3,20.8,167,989.70,-21.7,56,0.35,0.0,1020.06,360.0
2019-02-01 02:10,50.6304483333333,-96.980765,16.8,21.8,167,989.55,-21.6,56,0.37,0.0,1019.90,360.0
2019-02-01 02:20,50.6304466666667,-96.980765,15.8,19.3,167,989.49,-21.6,56,0.37,0.0,1019.84,360.0
2019-02-01 02:30,50.6304483333333,-96.980765,15.5,19.6,168,989.40,-21.7,56,0.35,0.0,1019.75,360.0
2019-02-01 02:40,50.63045,-96.9807666666667,14.4,18.5,173,989.42,-21.8,57,0.33,0.0,1019.77,360.0
2019-02-01 02:50,50.63045,-96.9807666666667,14.0,17.4,170,989.48,-21.9,57,0.31,0.0,1019.84,360.0
2019-02-01 03:00,50.63045,-96.9807666666667,14.3,19.0,170,989.60,-22.0,57,0.30,0.0,1019.97,66.4
2019-02-01 03:10,50.63045,-96.9807666666667,14.3,18.3,170,989.89,-22.0,57,0.30,0.0,1020.27,66.4
2019-02-01 03:20,50.6304516666667,-96.9807683333333,12.8,15.7,170,989.90,-22.1,57,0.30,0.0,1020.28,66.4
2019-02-01 03:30,50.6304516666667,-96.9807666666667,12.9,16.3,167,989.79,-22.2,58,0.30,0.0,1020.18,66.4
2019-02-01 03:40,50.6304666666667,-96.980775,14.2,17.2,167,989.55,-22.2,58,0.31,0.0,1019.93,66.4
2019-02-01 03:50,50.630455,-96.98077,15.0,19.0,167,989.28,-22.3,59,0.33,0.0,1019.66,66.4
2019-02-01 04:00,50.6304383333333,-96.98077,14.1,17.7,166,989.18,-22.4,59,0.31,0.0,1019.56,142.0
2019-02-01 04:10,50.6304466666667,-96.980765,13.5,16.8,164,989.06,-22.5,60,0.30,0.0,1019.44,142.0
2019-02-01 04:20,50.6304466666667,-96.9807666666667,13.0,15.8,166,989.04,-22.6,60,0.29,0.0,1019.43,142.0
2019-02-01 04:30,50.6304466666667,-96.980765,11.7,15.5,170,989.03,-22.6,61,0.28,0.0,1019.43,142.0
2019-02-01 04:40,50.63045,-96.9807666666667,10.8,14.1,169,989.00,-22.7,61,0.30,0.0,1019.41,142.0
2019-02-01 04:50,50.6304483333333,-96.9807666666667,9.3,11.8,168,989.01,-22.8,62,0.32,0.0,1019.43,142.0
2019-02-01 05:00,50.63045,-96.9807666666667,7.7,10.2,159,989.05,-23.0,64,0.31,0.0,1019.48,360.0
2019-02-01 05:10,50.6304516666667,-96.98077,9.6,11.4,156,988.82,-23.3,66,0.30,0.0,1019.27,360.0
2019-02-01 05:20,50.63046,-96.9807966666667,10.7,12.7,162,988.78,-23.3,66,0.31,0.0,1019.23,360.0
2019-02-01 05:30,50.630455,-96.9807766666667,11.1,13.2,162,988.75,-23.3,66,0.33,0.0,1019.21,360.0
2019-02-01 05:40,50.630455,-96.9807716666667,10.2,12.8,160,988.78,-23.3,66,0.35,0.0,1019.24,360.0
2019-02-01 05:50,50.6304583333333,-96.98077,10.4,12.2,165,988.88,-23.3,66,0.35,0.0,1019.36,360.0
2019-02-01 06:00,50.6304583333333,-96.9807683333333,10.2,12.0,164,988.88,-23.4,66,0.37,0.0,1019.36,38.0
2019-02-01 06:10,50.6304566666667,-96.980765,10.7,12.5,160,988.70,-23.5,66,0.37,0.0,1019.18,38.0
2019-02-01 06:20,50.63045,-96.9807683333333,10.5,12.5,157,988.59,-23.6,67,0.38,0.0,1019.09,38.0
2019-02-01 06:30,50.6304583333333,-96.9807683333333,10.0,12.5,158,988.59,-23.6,67,0.39,0.0,1019.09,38.0
2019-02-01 06:40,50.6304583333333,-96.980765,9.8,12.5,159,988.52,-23.6,67,0.40,0.0,1019.02,38.0
2019-02-01 06:50,50.6304466666667,-96.98076,10.3,12.1,157,988.51,-23.5,67,0.40,0.0,1019.02,38.0
2019-02-01 07:00,50.6304633333333,-96.9807683333333,11.0,12.9,155,988.27,-23.5,68,0.40,0.0,1018.80,360.0
2019-02-01 07:10,50.63046,-96.9807666666667,11.4,13.2,156,988.06,-23.5,68,0.40,0.0,1018.58,360.0
2019-02-01 07:20,50.6304483333333,-96.9807716666667,10.9,13.3,157,988.08,-23.5,67,0.38,0.0,1018.60,360.0
2019-02-01 07:30,50.6304466666667,-96.9807733333333,11.8,14.2,159,988.10,-23.5,67,0.35,0.0,1018.61,360.0
2019-02-01 07:40,50.63045,-96.98078,13.2,15.6,157,987.82,-23.5,67,0.35,0.0,1018.33,360.0
2019-02-01 07:50,50.63045,-96.9807783333333,12.4,15.7,157,987.89,-23.6,67,0.35,0.0,1018.41,360.0
2019-02-01 08:00,50.63046,-96.9807583333333,12.3,15.0,160,987.83,-23.6,67,0.34,0.0,1018.36,48.3
2019-02-01 08:10,50.63046,-96.9807983333333,12.2,15.2,157,987.66,-23.6,67,0.34,0.0,1018.18,48.3
2019-02-01 08:20,50.6304516666667,-96.9807633333333,11.8,14.8,152,987.72,-23.6,67,0.36,0.0,1018.25,48.3
2019-02-01 08:30,50.6304533333333,-96.9807666666667,12.3,14.6,149,987.74,-23.6,67,0.37,0.0,1018.27,48.3
2019-02-01 08:40,50.630455,-96.9807666666667,13.1,15.8,151,987.60,-23.5,67,0.38,0.0,1018.11,48.3
2019-02-01 08:50,50.6304533333333,-96.9807683333333,13.5,16.3,154,987.48,-23.4,68,0.38,0.0,1017.98,48.3
2019-02-01 09:00,50.6304566666667,-96.9807733333333,13.4,15.7,153,987.41,-23.3,69,0.37,0.0,1017.90,192.6
2019-02-01 09:10,50.63045,-96.98076,13.2,15.2,152,987.23,-23.2,69,0.37,0.0,1017.71,192.6
2019-02-01 09:20,50.6304566666667,-96.98076,12.9,15.7,154,987.08,-23.0,70,0.37,0.0,1017.55,192.6
2019-02-01 09:30,50.6304533333333,-96.98076,13.3,15.9,156,986.96,-22.9,70,0.37,0.0,1017.42,192.6
2019-02-01 09:40,50.6304566666667,-96.9807566666667,13.3,15.8,158,986.88,-22.7,71,0.37,0.0,1017.33,192.6
2019-02-01 09:50,50.6304516666667,-96.98076,14.0,16.5,160,986.72,-22.6,71,0.37,0.0,1017.16,192.6
2019-02-01 10:00,50.6304516666667,-96.9807616666667,13.1,15.2,163,986.81,-22.5,72,0.38,0.0,1017.24,165.5
2019-02-01 10:10,50.6304516666667,-96.9807616666667,11.8,13.7,162,986.73,-22.4,72,0.38,0.0,1017.15,165.5
2019-02-01 10:20,50.6304516666667,-96.980765,11.1,12.8,161,986.78,-22.2,73,0.39,0.0,1017.20,165.5
2019-02-01 10:30,50.6304516666667,-96.9807666666667,10.7,12.4,161,986.91,-21.9,74,0.39,0.0,1017.31,165.5
2019-02-01 10:40,50.6304783333333,-96.98077,11.2,12.8,157,986.80,-21.7,74,0.38,0.0,1017.17,165.5
2019-02-01 10:50,50.6304616666667,-96.9807633333333,11.1,13.0,154,986.77,-21.5,75,0.39,0.0,1017.13,165.5
2019-02-01 11:00,50.6304433333333,-96.9807616666667,10.8,13.2,151,986.78,-21.3,76,0.40,0.0,1017.12,360.0
2019-02-01 11:10,50.630445,-96.9807716666667,10.1,12.1,152,986.69,-21.0,77,0.38,0.0,1016.99,360.0
2019-02-01 11:20,50.63045,-96.9807716666667,9.2,11.0,160,986.84,-20.6,78,0.37,0.0,1017.11,360.0
2019-02-01 11:30,50.6304533333333,-96.9807733333333,9.2,10.9,165,986.79,-20.2,78,0.37,0.0,1017.03,360.0
2019-02-01 11:40,50.630455,-96.9807733333333,12.3,16.7,177,986.59,-19.6,77,0.36,0.0,1016.78,360.0
2019-02-01 11:50,50.6304533333333,-96.980775,15.2,20.1,179,986.23,-19.2,76,0.33,0.0,1016.38,360.0
2019-02-01 12:00,50.630455,-96.9807633333333,15.2,19.1,178,985.98,-19.0,76,0.31,0.0,1016.11,90.0
2019-02-01 12:10,50.63046,-96.9807433333333,14.4,19.1,177,985.96,-18.9,76,0.30,0.0,1016.06,90.0
2019-02-01 12:20,50.6304566666667,-96.98076,13.4,16.5,173,985.89,-18.8,76,0.29,0.0,1015.96,90.0
2019-02-01 12:30,50.630455,-96.9807666666667,13.0,17.7,172,985.63,-18.7,76,0.29,0.0,1015.68,90.0
2019-02-01 12:40,50.6304533333333,-96.9807816666667,11.8,13.7,169,985.65,-18.6,76,0.28,0.0,1015.69,90.0
2019-02-01 12:50,50.63045,-96.9807683333333,13.3,16.3,168,985.55,-18.5,76,0.28,0.0,1015.57,90.0
2019-02-01 13:00,50.6304616666667,-96.98077,12.4,15.8,167,985.43,-18.4,76,0.27,0.0,1015.41,345.5
2019-02-01 13:10,50.630455,-96.98077,11.9,15.0,167,985.32,-18.4,76,0.27,0.0,1015.28,345.5
2019-02-01 13:20,50.6304616666667,-96.9807833333333,13.1,15.4,168,985.12,-18.3,77,0.27,0.0,1015.04,345.5
2019-02-01 13:30,50.6304766666667,-96.9807766666667,12.2,16.1,169,985.11,-18.2,77,0.27,0.0,1014.98,345.5
2019-02-01 13:40,50.630455,-96.9807666666667,12.8,15.3,173,984.94,-18.1,77,0.27,0.0,1014.79,345.5
2019-02-01 13:50,50.6304516666667,-96.9807633333333,11.2,14.4,173,984.85,-18.0,77,0.27,0.0,1014.68,345.5
2019-02-01 14:00,50.63045,-96.9807666666667,10.9,14.6,178,984.91,-17.9,77,0.27,0.0,1014.72,360.0
2019-02-01 14:10,50.63045,-96.9807666666667,9.2,12.5,177,984.90,-17.8,78,0.27,0.0,1014.70,360.0
2019-02-01 14:20,50.6304516666667,-96.9807683333333,11.4,14.4,178,984.93,-17.7,78,0.27,0.0,1014.72,360.0
2019-02-01 14:30,50.6304516666667,-96.98077,11.9,14.9,179,984.83,-17.6,78,0.27,0.0,1014.60,360.0
2019-02-01 14:40,50.6304516666667,-96.9807683333333,11.9,15.6,178,984.73,-17.6,78,0.27,0.0,1014.50,360.0
2019-02-01 14:50,50.6304533333333,-96.98077,10.8,14.5,177,984.75,-17.6,79,0.28,0.0,1014.51,360.0
2019-02-01 15:00,50.6304533333333,-96.9807683333333,10.7,13.1,184,984.90,-17.5,79,0.28,0.0,1014.66,0.0
2019-02-01 15:10,50.6304533333333,-96.98077,10.2,14.1,183,984.88,-17.4,80,0.28,0.0,1014.63,0.0
2019-02-01 15:20,50.6304533333333,-96.9807683333333,9.6,12.4,183,985.02,-17.3,81,0.28,0.0,1014.75,0.0
2019-02-01 15:30,50.6304533333333,-96.9807683333333,10.6,13.9,181,984.98,-17.2,82,0.28,0.0,1014.70,0.0
2019-02-01 15:40,50.6304533333333,-96.9807683333333,8.7,12.1,186,985.14,-17.1,83,0.28,0.0,1014.86,0.0
2019-02-01 15:50,50.6304466666667,-96.9807633333333,9.1,11.9,177,985.12,-17.0,83,0.28,0.0,1014.83,0.0
2019-02-01 16:00,50.630465,-96.98077,9.8,13.3,177,985.00,-16.9,82,0.28,0.0,1014.69,38.0
2019-02-01 16:10,50.630445,-96.980765,7.5,10.3,182,985.19,-16.7,82,0.28,0.0,1014.87,38.0
2019-02-01 16:20,50.630425,-96.9807566666667,6.6,8.4,189,985.37,-16.5,82,0.28,0.0,1015.04,38.0
2019-02-01 16:30,50.6304433333333,-96.9807666666667,5.5,7.6,186,985.43,-16.4,83,0.28,0.0,1015.09,38.0
2019-02-01 16:40,50.630445,-96.9807633333333,5.3,6.8,192,985.45,-16.3,83,0.29,0.0,1015.11,38.0
2019-02-01 16:50,50.6304466666667,-96.9807633333333,5.4,7.4,197,985.49,-16.2,82,0.29,0.0,1015.13,38.0
2019-02-01 17:00,50.6304483333333,-96.980765,5.1,6.5,193,985.47,-16.0,81,0.29,0.0,1015.10,360.0
2019-02-01 17:10,50.6304483333333,-96.9807666666667,4.7,7.3,192,985.47,-15.9,81,0.29,0.0,1015.09,360.0
2019-02-01 17:20,50.63045,-96.9807683333333,5.5,8.0,195,985.55,-15.7,81,0.29,0.0,1015.15,360.0
2019-02-01 17:30,50.63045,-96.9807683333333,3.5,6.4,223,985.52,-15.4,81,0.29,0.0,1015.10,360.0
2019-02-01 17:40,50.6304483333333,-96.9807683333333,2.8,5.4,215,985.45,-15.3,81,0.29,0.0,1015.01,360.0
2019-02-01 17:50,50.63045,-96.9807683333333,3.2,5.4,211,985.27,-15.2,80,0.29,0.0,1014.82,360.0
2019-02-01 18:00,50.63045,-96.9807683333333,2.0,3.3,227,985.08,-14.9,79,0.29,0.0,1014.59,90.0
2019-02-01 18:10,50.63045,-96.9807683333333,1.4,2.9,215,984.87,-14.5,78,0.29,0.0,1014.34,90.0
2019-02-01 18:20,50.63045,-96.98077,0.3,1.4,237,984.90,-13.8,76,0.29,0.0,1014.33,90.0
2019-02-01 18:30,50.63045,-96.98077,1.2,2.6,74,984.76,-12.8,74,0.30,0.0,1014.12,90.0
2019-02-01 18:40,50.6304483333333,-96.9807683333333,3.9,4.8,53,984.67,-13.8,79,0.30,0.0,1014.08,90.0
2019-02-01 18:50,50.6304483333333,-96.9807683333333,4.6,5.9,44,984.62,-14.4,82,0.30,0.0,1014.06,90.0
2019-02-01 19:00,50.6304516666667,-96.9807616666667,6.0,7.1,25,984.67,-14.7,83,0.30,0.0,1014.11,156.5
2019-02-01 19:10,50.6304483333333,-96.9807766666667,6.9,7.8,26,984.57,-14.8,84,0.30,0.0,1014.00,156.5
2019-02-01 19:20,50.63045,-96.9807733333333,7.1,8.1,28,984.44,-14.8,84,0.30,0.0,1013.86,156.5
2019-02-01 19:30,50.6304483333333,-96.9807766666667,8.1,9.7,31,984.24,-14.8,84,0.30,0.0,1013.65,156.5
2019-02-01 19:40,50.6304483333333,-96.98078,8.6,10.0,28,984.18,-14.9,85,0.30,0.0,1013.58,156.5
2019-02-01 19:50,50.6304483333333,-96.9807783333333,7.9,8.9,27,984.37,-14.9,85,0.30,0.0,1013.76,156.5
2019-02-01 20:00,50.6304483333333,-96.9807783333333,6.9,7.9,32,984.44,-14.9,85,0.31,0.0,1013.81,270.0
2019-02-01 20:10,50.6304516666667,-96.9807783333333,6.8,7.8,36,984.23,-14.8,85,0.31,0.0,1013.55,270.0
2019-02-01 20:20,50.6304466666667,-96.9807683333333,6.6,7.8,39,984.19,-14.7,85,0.31,0.0,1013.44,270.0
2019-02-01 20:30,50.6304516666667,-96.9807683333333,6.4,8.4,26,984.45,-14.7,84,0.31,0.0,1013.77,270.0
2019-02-01 20:40,50.6304516666667,-96.9807683333333,7.7,9.2,16,984.51,-14.9,84,0.31,0.0,1013.87,270.0
2019-02-01 20:50,50.6304316666667,-96.9807466666667,8.5,9.7,17,984.61,-15.0,84,0.31,0.0,1013.99,270.0
2019-02-01 21:00,50.63044,-96.98076,9.2,10.7,14,984.66,-15.0,85,0.31,0.0,1014.06,165.5
2019-02-01 21:10,50.630445,-96.980765,10.5,12.6,7,984.87,-15.1,84,0.32,0.0,1014.28,165.5
2019-02-01 21:20,50.63046,-96.98076,10.8,13.0,10,984.82,-15.1,83,0.32,0.0,1014.23,165.5
2019-02-01 21:30,50.6304516666667,-96.98076,11.4,14.1,13,984.82,-15.2,82,0.32,0.0,1014.24,165.5
2019-02-01 21:40,50.63045,-96.9807583333333,10.5,12.4,10,984.98,-15.3,81,0.32,0.0,1014.42,165.5
2019-02-01 21:50,50.63045,-96.98076,10.9,13.5,3,985.41,-15.2,81,0.32,0.0,1014.85,165.5
2019-02-01 22:00,50.630445,-96.9807533333333,12.2,17.1,10,985.35,-15.2,82,0.32,0.0,1014.77,360.0
2019-02-01 22:10,50.6304483333333,-96.9807633333333,15.5,18.7,10,984.92,-15.1,81,0.32,0.0,1014.32,360.0
2019-02-01 22:20,50.63045,-96.9807633333333,16.3,19.6,3,984.91,-15.2,81,0.32,0.0,1014.32,360.0
2019-02-01 22:30,50.6304516666667,-96.980765,15.3,20.0,358,985.22,-15.3,81,0.32,0.0,1014.65,360.0
2019-02-01 22:40,50.6304383333333,-96.9807716666667,15.8,20.9,355,985.66,-15.4,81,0.33,0.0,1015.12,360.0
2019-02-01 22:50,50.630445,-96.9807733333333,16.4,20.0,354,985.74,-15.6,81,0.33,0.0,1015.22,360.0
2019-02-01 23:00,50.6304433333333,-96.9807666666667,15.3,19.7,356,985.78,-15.7,81,0.33,0.0,1015.26,113.6
2019-02-01 23:10,50.630445,-96.98077,14.8,18.5,354,985.89,-15.8,81,0.33,0.0,1015.39,113.6
2019-02-01 23:20,50.630445,-96.9807683333333,14.7,19.6,346,986.44,-15.9,79,0.33,0.0,1015.97,113.6
2019-02-01 23:30,50.6304483333333,-96.9807566666667,12.9,17.6,350,986.72,-16.0,77,0.33,0.0,1016.27,113.6
2019-02-01 23:40,50.630445,-96.980765,13.4,18.3,347,986.58,-16.2,74,0.33,0.0,1016.13,113.6
2019-02-01 23:50,50.6304433333333,-96.98077,15.0,18.8,346,986.26,-16.4,74,0.33,0.0,1015.81,113.6
